(332195) = 2001 CV41 = 2006 DB58

Discovered at Mount Lemmon on 2006-02-24 by Mt. Lemmon Survey.

Orbit

Orbit type: Main Belt

Note: WebGL enabled browser required.

epoch2024-03-31.0
epoch JD2460400.5
perihelion date2023-03-04.62061
perihelion JD2460008.12061
argument of perihelion (°)88.82652
ascending node (°)344.46059
inclination (°)4.44944
eccentricity0.0933215
perihelion distance (AU)2.4833107
Tisserand w.r.t. Jupiter3.3
ΔV w.r.t. Earth (km/sec)10.0
semimajor axis (AU)2.7389100
mean anomaly (°)85.31854
mean daily motion (°/day)0.21743890
aphelion distance (AU)2.995
period (years)4.53
P-vector [x]0.28676864
P-vector [y]0.84520937
P-vector [z]0.45098211
Q-vector [x]-0.95777439
Q-vector [y]0.26315916
Q-vector [z]0.11582515
absolute magnitude16.91
phase slope0.15
uncertainty0
referenceMPEC 2024-E73
observations used260
oppositions15
arc length (days)8418
first opposition used2001
last opposition used2024
residual rms (arc-secs)0.88
perturbers coarse indicatorM-v
perturbers precise indicator003Ek
first observation date used2001-02-15.0
last observation date used2024-03-05.0
computer nameMPCLINUX
JD of orbit computation2456639.787506
perihelion JD uncertainty (days)2.3319E-04
argument of perihelion uncertainty (°)1.1776E-04
ascending node uncertainty (°)1.0283E-04
inclination uncertainty (°)7.5729E-06
eccentricity uncertainty 8.3152E-08
perihelion distance uncertainty (AU)2.4718E-07
Minimum Orbit Intersection Distances (in AU)
for orbit epoch: 2460400.5, reference: E2024-FB1
Mercury2.17576
Venus1.76589
Earth1.50337
Mars0.9123
Jupiter2.22028
Saturn6.55053
Uranus15.669
Neptune27.2374

Observations

265 total observations over interval: 2001 02 15.97029 – 2024 03 05.301194
These data are available for download (format description).

Date (UT) J2000 RA J2000 Dec Magn Location Ref
2001 02 15.97029 08 23 54.89 +23 13 55.5   557 – Ondrejov MPS 26969
2001 02 15.98535 08 23 54.19 +23 13 55.0   557 – Ondrejov MPS 26969
2001 02 15.99814 08 23 53.56 +23 13 55.1 20 V 557 – Ondrejov MPS 26969
2001 02 16.84461 08 23 15.35 +23 14 06.0   557 – Ondrejov MPS 26969
2004 11 11.21635 03 50 56.80 +27 14 36.2 20.1 V 691 – Steward Observatory, Kitt Peak-Spacewatch MPS 178583
2004 11 11.24387 03 50 55.18 +27 14 33.9 20.2 V 691 – Steward Observatory, Kitt Peak-Spacewatch MPS 178583
2004 11 11.27590 03 50 53.28 +27 14 31.7 20.6 V 691 – Steward Observatory, Kitt Peak-Spacewatch MPS 178583
2005 12 03.63210 11 43 32.309 +02 39 45.53 21.0 R 568 – Maunakea MPS 178583
2005 12 03.63753 11 43 32.633 +02 39 43.03 21.1 R 568 – Maunakea MPS 178583
2005 12 03.64293 11 43 32.968 +02 39 40.83 21.0 R 568 – Maunakea MPS 178583
2006 02 24.40171 12 03 27.03 -01 19 37.8 21.4 V G96 – Mt. Lemmon Survey MPS 165263
2006 02 24.40792 12 03 26.74 -01 19 37.1 22.2 V G96 – Mt. Lemmon Survey MPS 165263
2006 02 24.41417 12 03 26.49 -01 19 36.3 21.2 V G96 – Mt. Lemmon Survey MPS 165263
2006 02 24.42043 12 03 26.20 -01 19 35.3 22.1 V G96 – Mt. Lemmon Survey MPS 165263
2006 02 25.33834 12 02 48.20 -01 17 06.0 20.9 V 691 – Steward Observatory, Kitt Peak-Spacewatch MPS 165263
2006 02 25.35565 12 02 47.44 -01 17 03.2 20.7 V 691 – Steward Observatory, Kitt Peak-Spacewatch MPS 165263
2006 02 25.37297 12 02 46.70 -01 17 00.1 20.7 V 691 – Steward Observatory, Kitt Peak-Spacewatch MPS 165263
2006 03 04.32744 11 57 31.03 -00 55 15.6   691 – Steward Observatory, Kitt Peak-Spacewatch MPS 166237
2006 03 04.34484 11 57 30.18 -00 55 11.8   691 – Steward Observatory, Kitt Peak-Spacewatch MPS 166237
2006 03 04.36222 11 57 29.28 -00 55 08.5   691 – Steward Observatory, Kitt Peak-Spacewatch MPS 166237
2006 03 25.30627 11 39 30.24 +00 26 58.6 20.4 V G96 – Mt. Lemmon Survey MPS 167178
2006 03 25.31161 11 39 29.95 +00 26 59.8 20.2 V G96 – Mt. Lemmon Survey MPS 167178
2006 03 25.31683 11 39 29.70 +00 27 01.3 20.6 V G96 – Mt. Lemmon Survey MPS 167178
2006 03 25.32234 11 39 29.37 +00 27 02.3 20.5 V G96 – Mt. Lemmon Survey MPS 167178
2006 04 02.26880 11 33 08.35 +00 57 13.4 20.7 V G96 – Mt. Lemmon Survey MPS 169928
2006 04 02.27483 11 33 08.06 +00 57 14.7 20.6 V G96 – Mt. Lemmon Survey MPS 169928
2006 04 02.28075 11 33 07.81 +00 57 16.0 20.5 V G96 – Mt. Lemmon Survey MPS 169928
2006 04 02.28679 11 33 07.52 +00 57 17.3 20.4 V G96 – Mt. Lemmon Survey MPS 169928
2006 04 19.13216 11 23 09.33 +01 43 43.1 21.2 R 809 – European Southern Observatory, La Silla MPS 169190
2006 04 19.13751 11 23 09.21 +01 43 43.6 20.9 R 809 – European Southern Observatory, La Silla MPS 169190
2006 04 19.14287 11 23 09.07 +01 43 44.3 21.1 R 809 – European Southern Observatory, La Silla MPS 169190
2006 04 19.14823 11 23 08.93 +01 43 45.1 21.2 R 809 – European Southern Observatory, La Silla MPS 169190
2008 09 07.26858 23 44 50.31 -00 38 40.4 20.1 V G96 – Mt. Lemmon Survey MPS 255894
2008 09 07.27506 23 44 49.99 -00 38 41.7 20.3 V G96 – Mt. Lemmon Survey MPS 255894
2008 09 07.28149 23 44 49.66 -00 38 43.3 20.1 V G96 – Mt. Lemmon Survey MPS 255894
2008 09 07.28804 23 44 49.30 -00 38 44.5 20.3 V G96 – Mt. Lemmon Survey MPS 255894
2008 10 08.20466 23 19 37.12 -02 28 19.8 20.5 V G96 – Mt. Lemmon Survey MPS 259296
2008 10 08.21010 23 19 36.94 -02 28 20.4 20.9 V G96 – Mt. Lemmon Survey MPS 259296
2008 10 08.21549 23 19 36.66 -02 28 21.9 21.2 V G96 – Mt. Lemmon Survey MPS 259296
2008 10 08.22105 23 19 36.40 -02 28 22.9 21.6 V G96 – Mt. Lemmon Survey MPS 259296
2008 10 24.15535 23 11 55.50 -02 58 25.4 21.4 V G96 – Mt. Lemmon Survey MPS 260623
2008 10 24.16329 23 11 55.35 -02 58 25.8 21.9 V G96 – Mt. Lemmon Survey MPS 260623
2008 10 24.17109 23 11 55.21 -02 58 26.3 20.6 V G96 – Mt. Lemmon Survey MPS 260623
2008 10 24.17909 23 11 55.06 -02 58 26.7 20.7 V G96 – Mt. Lemmon Survey MPS 260623
2008 11 19.13921 23 13 01.45 -02 33 01.7 20.9 V G96 – Mt. Lemmon Survey MPS 265272
2008 11 19.14609 23 13 01.56 -02 32 59.8 20.7 V G96 – Mt. Lemmon Survey MPS 265272
2008 11 19.15307 23 13 01.66 -02 32 59.4 21.1 V G96 – Mt. Lemmon Survey MPS 265272
2008 11 19.16004 23 13 01.84 -02 32 58.2 21.0 V G96 – Mt. Lemmon Survey MPS 265272
2010 01 12.29663 08 12 45.86 +25 27 00.4 19.2 V 703 – Catalina Sky Survey MPS 310224
2010 01 12.30347 08 12 45.54 +25 27 01.3 20.4 V 703 – Catalina Sky Survey MPS 310224
2010 01 12.31045 08 12 45.07 +25 27 01.0 20.4 V 703 – Catalina Sky Survey MPS 310224
2010 01 12.31737 08 12 44.64 +25 27 04.2 20.2 V 703 – Catalina Sky Survey MPS 310224
2010 01 14.18027 08 10 52.05 +25 30 47.8   691 – Steward Observatory, Kitt Peak-Spacewatch MPS 310224
2010 01 14.19797 08 10 50.93 +25 30 49.9   691 – Steward Observatory, Kitt Peak-Spacewatch MPS 310224
2010 01 14.21567 08 10 49.83 +25 30 51.3   691 – Steward Observatory, Kitt Peak-Spacewatch MPS 310224
2010 01 18.85683 08 06 03.70 +25 39 03.9 19.6 R A13 – Observatoire Naef, Ependes MPS 311192
2010 01 18.87811 08 06 02.35 +25 39 05.9 20.2 R A13 – Observatoire Naef, Ependes MPS 311192
2011 04 27.28565 14 21 14.18 -19 50 56.4 21.3 V G96 – Mt. Lemmon Survey MPS 380049
2011 04 27.29214 14 21 13.86 -19 50 55.5 21.1 V G96 – Mt. Lemmon Survey MPS 380049
2011 04 27.29868 14 21 13.46 -19 50 53.7 20.9 V G96 – Mt. Lemmon Survey MPS 380049
2011 04 27.30523 14 21 13.06 -19 50 52.2 20.7 V G96 – Mt. Lemmon Survey MPS 380049
2012 06 16.54317 20 49 39.138 -22 39 30.71 21.1 w F51 – Pan-STARRS 1, Haleakala MPS 427309
2012 06 16.57102 20 49 38.569 -22 39 33.67 21.4 w F51 – Pan-STARRS 1, Haleakala MPS 427309
2012 06 16.58494 20 49 38.285 -22 39 35.08 21.3 w F51 – Pan-STARRS 1, Haleakala MPS 427309
2013 07 13.58712 02 30 00.111 +17 16 43.11 21.8 w F51 – Pan-STARRS 1, Haleakala MPS 472630
2013 07 13.59198 02 30 00.508 +17 16 45.49 21.9 w F51 – Pan-STARRS 1, Haleakala MPS 472630
2013 07 13.60231 02 30 01.308 +17 16 49.90 22.2 w F51 – Pan-STARRS 1, Haleakala MPS 472630
2013 10 14.41026 03 24 45.55 +24 40 46.7 20.8 V 691 – Steward Observatory, Kitt Peak-Spacewatch MPS 482249
2013 10 14.42799 03 24 44.91 +24 40 47.8 20.4 V 691 – Steward Observatory, Kitt Peak-Spacewatch MPS 482249
2013 10 14.44573 03 24 44.30 +24 40 48.8 20.4 V 691 – Steward Observatory, Kitt Peak-Spacewatch MPS 482249
2013 10 23.46963 03 18 44.97 +24 41 15.7 20.2 V 691 – Steward Observatory, Kitt Peak-Spacewatch MPS 483533
2013 10 23.48738 03 18 44.14 +24 41 15.0 20.7 V 691 – Steward Observatory, Kitt Peak-Spacewatch MPS 483533
2013 10 23.50860 03 18 43.10 +24 41 14.2 20.8 V 691 – Steward Observatory, Kitt Peak-Spacewatch MPS 483533
2013 10 30.35458 03 12 59.149 +24 33 58.24 19.9 w F51 – Pan-STARRS 1, Haleakala MPS 485148
2013 10 30.36889 03 12 58.350 +24 33 57.10 20.2 w F51 – Pan-STARRS 1, Haleakala MPS 485148
2013 11 02.31539 03 10 15.83 +24 28 46.8 20.7 V 703 – Catalina Sky Survey MPS 487082
2013 11 02.32305 03 10 15.57 +24 28 48.7 19.8 V 703 – Catalina Sky Survey MPS 487082
2013 11 02.33071 03 10 15.03 +24 28 44.4 20.7 V 703 – Catalina Sky Survey MPS 487082
2013 11 02.33836 03 10 14.48 +24 28 44.9 21.2 V 703 – Catalina Sky Survey MPS 487082
2013 11 08.19232 03 04 37.33 +24 15 08.4 19.9 V 691 – Steward Observatory, Kitt Peak-Spacewatch MPS 487082
2013 11 08.21004 03 04 36.26 +24 15 05.7 20.2 V 691 – Steward Observatory, Kitt Peak-Spacewatch MPS 487082
2013 11 08.22776 03 04 35.22 +24 15 03.0 20.3 V 691 – Steward Observatory, Kitt Peak-Spacewatch MPS 487082
2013 11 08.31042 03 04 30.25 +24 14 50.6 19.6 V 703 – Catalina Sky Survey MPS 487082
2013 11 08.32031 03 04 29.61 +24 14 47.7 19.8 V 703 – Catalina Sky Survey MPS 487082
2013 11 08.33020 03 04 29.00 +24 14 46.9 20.1 V 703 – Catalina Sky Survey MPS 487082
2013 11 08.34011 03 04 28.42 +24 14 46.4 19.3 V 703 – Catalina Sky Survey MPS 487082
2013 11 12.19746 03 00 41.96 +24 03 33.8 20.6 V 691 – Steward Observatory, Kitt Peak-Spacewatch MPS 488344
2013 11 12.21520 03 00 40.89 +24 03 30.5 21.0 V 691 – Steward Observatory, Kitt Peak-Spacewatch MPS 488344
2013 11 12.23294 03 00 39.80 +24 03 27.9 20.3 V 691 – Steward Observatory, Kitt Peak-Spacewatch MPS 488344
2013 11 28.30239 02 46 08.77 +23 05 26.3 20.1 V 703 – Catalina Sky Survey MPS 489854
